EXPRESS-AM22 (SESAT 2) 1 28134U 03060A 21060.92396595 -.00000262 00000-0 00000-0 0 9995 2 28134 3.4949 83.3082 0004329 70.2608 138.8890 0.99359868 62826 SL-12 R/B(2) 1 28139U 03060D 21061.38521632 -.00000249 00000-0 00000+0 0 9997 2 28139 11.9456 27.1534 0011846 186.1456 176.8656 1.00232670 62776